Terug naar catalogus

ARIANE 1 DEB

ActiefSSO
NORAD 27596·DEBRIS·🇫🇷 France

Gelanceerd Feb 22, 1986 vanaf Guiana Space Centre

Loading…

Volgende Passages (komende 24 uur)

TLE

VersSource: Space-Track

Epoch: Sep 13, 2026, 22:29 UTC

1 27596U 86019VN  26256.93737050  .00001672  00000-0  39017-3 0  9997
2 27596  98.2699 234.7418 0038736  45.1854  15.5361 14.55587878627067

Volg ARIANE 1 DEB in realtime met AllMySat

Download on the App Store